Temperature
13 13 13 13 12 12 12 12 12 12 12 12 11 11 11 11 11 11 11 11 11 11 11 11 11 11 11 11 11 11 11 11 11 11 11 11 11 11 11 11 11 11 11
13 13 12 13 12 12 12 12 12 12 12 11 11 11 11 11 11 11 11 11 11 11 11 11 11 11 11 11 11 11 11 11 11 11 11 11 11 11 11 11 11 11 11
13 12 12 12 12 12 12 12 12 12 12 11 11 11 11 11 11 11 11 11 11 11 11 11 11 11 11 11 11 11 11 11 11 11 11 11 11 11 11 11 11 11 11
12 12 12 12 12 12 11 11 11 11 11 11 11 11 11 11 11 11 11 11 11 11 11 11 11 11 11 11 11 11 11 10 10 10 10 10 10 11 10 11 11 11 11
12 12 12 12 11 11 11 11 11 11 11 11 11 11 11 11 11 11 11 11 11 11 11 10 10 11 11 11 10 10 10 10 10 10 10 10 10 10 10 10 10 10 10
12 12 11 11 11 11 11 11 11 11 11 10 10 10 10 11 11 11 11 10 10 10 10 10 10 10 10 10 10 10 10 10 10 10 10 10 10 10 10 10 10 10 9
11 11 11 11 11 11 11 11 11 10 10 10 10 10 10 10 11 11 11 10 10 10 10 10 10 10 10 10 10 10 10 10 10 10 9 9 9 10 9 9 9 9 9
11 11 11 11 11 10 11 11 11 10 10 10 10 10 10 10 10 10 10 10 10 10 10 10 10 10 10 10 10 10 10 10 10 10 9 9 9 9 9 9 9 9 9
11 11 11 10 10 10 10 10 10 10 10 10 10 10 10 10 10 10 10 9 9 9 9 9 9 9 9 9 9 9 9 9 10 10 9 9 9 9 9 8 8 8 8
11 11 10 10 10 10 10 10 10 10 10 10 9 9 9 9 9 9 9 9 9 9 9 9 9 9 9 9 9 9 9 9 9 9 9 9 9 9 8 8 8 8 8
10 10 10 10 10 10 10 10 10 10 9 9 9 9 9 9 9 9 9 8 8 8 8 8 8 9 9 9 9 9 9 9 8 8 8 8 8 8 8 8 8 8 8
10 10 10 10 10 10 9 9 9 9 9 9 9 9 9 9 8 8 8 8 8 8 8 8 8 8 8 8 8 8 8 8 8 8 8 8 8 8 8 8 8 8 8
10 10 10 9 9 9 9 9 9 9 8 8 8 8 8 8 8 8 8 8 8 7 7 7 7 8 8 7 8 8 8 7 7 7 7 7 7 7 7 7 7 7 7
10 9 9 9 9 9 9 8 8 8 8 8 7 7 7 7 7 7 7 7 7 7 7 7 7 7 7 7 7 7 7 7 7 7 7 7 7 7 7 7 7 7 7
9 9 9 9 9 8 8 8 8 7 7 7 7 7 7 7 7 7 7 6 6 6 6 6 6 6 6 6 6 6 6 6 6 6 6 6 6 6 6 6 6 6 6
9 8 8 8 8 8 8 7 7 7 7 7 6 6 6 6 6 6 6 6 6 6 6 6 5 5 5 5 5 5 5 5 5 5 6 6 6 5 5 5 5 5 5
8 8 8 8 7 7 7 7 7 7 7 6 6 6 6 6 6 6 5 5 5 5 5 5 5 5 4 4 4 4 4 5 5 5 5 5 5 5 5 5 5 5 5
7 7 7 7 7 7 6 6 6 6 6 6 6 5 5 5 5 5 5 5 4 4 4 4 4 4 4 4 4 4 4 4 4 4 4 4 4 4 4 4 4 4 4
6 6 6 6 6 6 6 5 5 5 5 5 5 5 5 4 4 4 4 4 4 4 3 3 3 3 3 3 3 3 3 3 3 3 3 3 4 3 3 3 3 3 3
6 6 6 6 5 5 5 5 5 4 4 4 4 4 4 4 3 3 3 3 3 3 3 3 3 3 3 3 3 3 3 3 3 3 3 3 3 3 3 3 3 3 3
5 5 5 5 5 4 4 4 4 4 4 3 3 3 3 3 3 3 3 2 2 2 2 2 2 2 2 2 2 2 2 2 2 2 2 2 2 2 2 2 2 2 2
5 5 4 4 4 4 4 3 3 3 3 3 2 3 3 2 2 2 2 2 2 2 2 2 2 2 2 2 2 2 2 2 2 2 2 2 2 2 2 1 1 1 1
4 4 4 4 3 3 3 3 3 2 2 2 2 2 2 2 2 2 2 2 2 1 1 1 1 2 2 2 2 2 1 1 1 1 1 1 1 1 1 1 1 1 1
3 3 3 3 3 3 2 2 2 2 2 2 2 2 1 1 1 1 1 1 1 1 1 1 1 1 1 1 1 1 1 1 1 1 1 1 1 1 1 1 0 0 0
3 3 2 2 2 2 2 2 1 1 1 1 1 1 1 1 1 1 1 1 1 1 1 1 1 1 1 1 1 1 1 1 1 1 1 1 0 0 0 0 0 -0 -0
2 2 2 2 2 2 1 1 1 1 1 1 1 0 1 1 1 1 1 1 1 1 1 1 1 1 1 1 1 1 1 1 1 1 0 0 0 -0 -0 -0 -0 -1 -1
Wind_Speed
6 6 6 5 5 5 4 5 4 4 4 4 4 4 4 4 4 4 5 5 5 5 5 5 6 5 4 4 4 4 4 4 5 4 2 2 3 3 2 4 3 4 5
5 6 6 5 5 5 5 5 5 5 5 5 4 5 4 4 4 5 5 5 6 6 6 6 6 5 5 5 4 5 5 5 5 5 3 3 4 4 3 4 4 5 5
5 6 6 6 6 6 6 5 6 5 5 5 5 5 5 5 5 5 6 6 6 7 7 6 6 6 6 5 5 5 4 4 4 5 4 2 3 3 3 4 4 4 5
5 6 6 6 6 6 6 6 6 6 5 5 5 5 5 5 6 6 7 7 7 6 6 6 6 6 6 6 5 6 5 4 4 4 4 3 3 3 3 4 4 4 5
5 6 6 6 6 6 6 6 6 6 6 6 6 6 6 5 5 6 6 6 6 6 6 6 6 6 5 5 4 5 5 5 4 4 4 4 4 3 4 4 5 5 5
5 5 5 6 6 6 6 6 6 6 6 6 6 6 6 5 3 5 6 6 7 6 6 6 6 6 6 6 5 5 5 6 6 5 5 5 6 6 5 5 5 4 4
5 5 5 5 5 6 6 6 6 6 7 7 7 7 7 6 4 4 6 7 7 6 6 6 4 4 5 6 5 6 7 7 7 7 7 7 7 6 5 6 6 6 5
4 4 4 4 5 5 5 6 6 6 6 6 6 7 6 5 4 4 5 7 7 7 7 6 5 5 4 5 5 5 6 6 7 7 7 7 6 6 6 6 6 6 5
4 4 4 4 5 5 5 6 6 6 6 6 6 6 7 6 4 4 5 6 6 7 6 6 6 6 3 4 6 6 6 6 5 6 7 6 5 4 4 4 4 4 5
4 4 3 4 4 4 5 5 4 5 5 6 6 6 6 6 3 3 4 5 6 6 5 5 4 4 4 3 6 6 7 6 5 5 6 7 7 6 6 7 6 6 5
3 3 3 3 3 3 3 3 4 4 4 5 5 5 5 5 4 3 3 4 5 6 5 5 3 2 3 3 5 6 5 6 6 6 5 5 5 4 5 6 5 6 6
2 2 2 2 2 2 2 2 3 3 4 4 4 5 4 4 3 3 4 5 6 6 5 5 3 1 3 4 4 4 4 5 5 5 4 4 4 4 4 5 6 6 6
2 2 2 2 2 1 1 1 2 2 3 3 4 4 4 3 3 3 4 5 6 5 4 3 2 2 4 4 4 4 4 4 4 5 5 4 4 4 4 4 5 5 5
2 2 2 2 1 1 1 1 2 2 3 3 4 4 4 3 3 3 3 3 4 5 4 3 3 3 4 4 3 4 4 4 4 5 4 4 4 3 3 3 3 3 3
2 2 2 1 1 1 1 1 2 2 3 4 4 4 4 4 3 3 3 3 3 3 3 3 3 3 3 3 3 3 3 3 3 4 4 4 4 3 3 3 3 3 4
1 1 1 1 1 1 1 1 2 1 3 3 4 4 3 4 3 2 3 2 1 1 2 3 3 3 3 3 3 3 3 3 3 3 4 3 3 3 3 2 2 3 4
1 1 1 1 1 1 1 2 2 2 2 2 2 3 3 3 2 2 1 1 1 2 2 3 3 3 4 4 4 4 4 4 4 3 3 3 3 3 3 2 2 3 3
0 0 1 1 1 1 2 2 2 2 2 2 2 2 2 3 2 2 1 1 1 1 3 3 3 4 4 4 4 4 4 4 4 4 4 3 4 4 4 3 3 3 3
0 0 1 1 1 1 1 1 1 2 2 2 2 2 2 2 2 1 1 1 1 2 3 3 3 3 4 4 4 4 4 4 4 4 4 4 4 4 4 4 3 3 4
1 1 1 1 1 1 1 1 1 2 2 2 2 3 2 2 1 1 1 2 2 3 3 3 3 3 4 4 4 4 4 4 4 4 4 4 3 4 4 4 4 4 3
1 0 0 1 1 1 1 1 2 2 2 2 2 2 2 2 2 2 2 2 3 3 3 3 3 3 3 3 4 4 5 4 4 4 4 4 3 3 4 4 4 4 4
1 1 0 1 1 1 1 1 1 2 2 2 2 1 1 1 2 2 2 3 3 3 3 3 3 3 3 3 3 4 4 4 4 4 3 3 3 3 4 4 4 4 4
1 1 1 1 1 1 1 1 1 2 2 2 2 2 1 2 2 2 2 3 3 3 3 3 3 3 3 3 3 3 4 4 4 3 3 3 3 3 3 3 4 4 4
2 2 2 2 1 1 2 2 2 2 2 2 2 2 2 2 2 3 3 3 3 3 3 3 3 4 5 4 3 3 4 4 4 3 4 3 3 3 3 4 4 4 4
2 2 2 2 2 2 2 2 2 2 2 2 2 2 2 2 3 3 3 3 3 3 3 3 3 4 5 4 4 4 4 3 3 3 3 3 4 4 4 4 4 4 4
2 3 3 2 2 2 3 3 3 3 3 3 3 3 3 3 3 3 3 3 3 3 3 3 4 4 5 4 4 4 4 3 3 3 3 3 3 4 4 4 4 4 4
Wind_Direction
206 210 211 215 224 226 233 238 244 250 247 248 250 255 257 255 253 246 247 242 246 248 249 259 259 251 240 239 243 245 249 253 255 250 245 235 216 225 214 229 225 215 199
207 210 214 215 221 227 234 239 241 247 249 249 250 252 255 258 257 252 249 247 248 251 254 259 262 252 245 243 241 242 243 245 251 253 242 233 234 229 228 239 235 222 218
207 211 216 218 221 228 234 241 240 241 241 242 247 248 251 253 253 252 252 249 251 254 254 258 262 254 245 239 241 245 245 245 247 250 247 234 237 233 237 244 235 226 226
208 216 220 223 226 231 235 240 243 241 241 242 247 249 250 252 254 256 254 252 253 256 258 257 260 258 256 249 242 245 243 242 240 245 244 232 229 234 235 234 226 219 226
208 217 224 229 233 235 239 242 245 246 246 246 248 251 254 253 260 265 260 256 256 255 257 258 259 263 273 270 258 248 240 241 238 239 242 236 228 221 231 228 230 224 224
210 216 222 231 234 238 241 244 246 247 247 248 249 251 255 253 267 275 272 258 256 255 259 262 258 244 242 243 255 256 249 245 244 240 241 243 242 237 239 234 231 225 230
215 220 222 231 238 242 243 243 245 245 245 247 249 251 254 254 250 252 261 259 256 256 259 261 263 266 251 250 239 234 237 238 246 251 252 255 252 245 238 238 233 233 243
216 221 223 231 239 243 242 244 248 251 247 246 248 250 253 252 246 248 253 251 254 254 253 255 257 262 267 264 258 248 248 242 237 246 256 260 259 255 242 244 246 242 249
216 224 229 234 241 244 245 248 250 250 250 248 246 249 250 249 237 240 247 254 255 256 255 253 254 259 276 264 256 256 255 251 228 230 252 264 271 257 245 239 234 231 238
223 231 234 236 243 247 251 254 254 252 256 256 251 250 251 255 243 242 251 251 255 256 258 256 240 262 280 253 253 256 258 261 256 241 239 243 244 230 214 232 233 234 240
229 229 233 239 243 251 259 255 255 255 257 257 259 258 255 258 248 238 249 254 256 259 257 258 258 226 272 275 269 264 273 279 265 253 245 245 243 238 230 233 239 238 241
215 219 228 236 240 247 255 265 261 259 257 259 261 265 266 262 262 252 245 258 277 262 260 262 267 253 270 272 267 280 289 273 263 261 254 251 249 245 242 240 240 239 244
200 203 215 218 221 230 239 258 270 269 266 266 266 266 269 272 263 241 240 250 263 263 266 298 304 267 256 253 249 263 258 255 254 255 257 259 262 264 256 243 239 241 250
195 199 211 218 223 227 241 251 263 272 274 272 269 269 271 269 269 262 255 251 248 255 263 256 233 238 249 270 259 249 250 254 258 257 259 264 267 264 257 248 241 236 241
193 196 210 213 229 239 237 277 271 276 292 287 280 274 274 272 291 319 285 268 266 264 263 259 260 255 258 262 268 268 259 255 259 268 266 262 262 262 261 250 245 240 241
189 191 211 222 236 254 262 291 45 336 349 330 327 309 293 314 328 303 285 291 308 279 248 254 258 262 267 270 270 273 277 277 272 271 273 270 267 266 268 261 247 246 251
181 182 208 240 248 257 263 274 302 351 35 18 8 359 342 346 348 328 310 305 260 209 238 253 262 268 272 273 276 280 281 285 285 275 272 275 274 269 265 263 259 260 263
180 168 223 242 257 262 266 274 287 298 314 329 351 30 9 4 0 0 337 227 261 240 258 264 269 273 274 275 276 277 278 281 279 274 270 271 273 270 266 264 260 263 263
290 249 248 275 276 272 274 276 279 286 293 306 324 349 15 358 354 353 237 248 266 269 270 273 276 275 275 277 278 275 272 273 275 272 268 267 268 264 259 261 264 264 264
312 354 322 289 278 277 288 289 284 282 287 303 311 328 339 338 335 337 304 288 279 279 281 278 279 278 277 277 278 275 269 267 269 269 266 264 263 262 260 259 262 260 261
325 351 281 288 286 280 281 281 291 292 293 302 309 337 342 297 290 295 292 290 286 286 286 284 283 282 280 280 275 270 268 265 264 264 262 259 258 261 262 259 260 261 262
313 301 291 290 291 287 293 282 282 285 292 296 301 312 314 280 287 292 295 298 296 295 297 293 288 287 285 278 277 274 271 267 265 265 266 267 264 261 262 264 266 263 261
305 295 282 274 270 281 272 287 295 290 293 296 303 314 294 282 287 290 293 297 297 298 301 295 289 291 288 283 280 278 275 272 267 265 263 263 260 257 260 264 264 266 267
293 283 279 272 264 263 268 279 285 285 286 290 293 294 289 286 290 294 295 297 300 302 303 298 295 294 297 298 292 287 292 294 283 266 260 258 261 257 253 256 260 265 267
286 283 281 278 267 257 260 266 272 277 282 286 288 286 283 284 288 290 293 297 298 298 299 297 298 296 291 290 298 303 317 317 297 282 263 254 256 256 254 253 254 260 263
277 277 276 273 268 264 260 260 264 271 274 277 280 280 279 278 281 285 290 295 297 297 300 299 300 299 297 293 295 301 304 291 274 268 259 252 251 253 254 251 255 257 262
Height
1519 1521 1522 1523 1524 1525 1526 1526 1527 1527 1528 1528 1527 1527 1527 1526 1526 1525 1525 1524 1524 1524 1523 1523 1522 1522 1521 1521 1520 1520 1520 1520 1520 1520 1519 1519 1519 1519 1519 1519 1520 1520 1521
1516 1517 1519 1520 1521 1522 1523 1524 1524 1525 1525 1525 1525 1525 1524 1524 1523 1523 1522 1522 1522 1521 1521 1520 1520 1519 1518 1518 1518 1517 1517 1517 1517 1517 1516 1516 1516 1516 1516 1516 1517 1517 1518
1513 1514 1516 1517 1518 1519 1520 1520 1521 1522 1522 1522 1522 1522 1522 1521 1521 1520 1520 1519 1519 1518 1518 1517 1517 1516 1515 1515 1514 1514 1514 1514 1513 1514 1513 1513 1513 1513 1513 1513 1514 1515 1515
1510 1512 1513 1514 1515 1516 1517 1517 1518 1518 1519 1519 1519 1519 1518 1518 1518 1517 1516 1516 1516 1515 1514 1514 1513 1513 1512 1512 1511 1511 1511 1510 1510 1510 1510 1510 1510 1509 1510 1510 1511 1511 1512
1508 1509 1510 1511 1512 1513 1513 1514 1514 1514 1515 1515 1515 1515 1515 1515 1514 1514 1513 1513 1512 1511 1511 1510 1509 1509 1508 1508 1508 1507 1507 1507 1507 1507 1507 1507 1507 1506 1506 1507 1507 1508 1508
1505 1506 1507 1508 1509 1509 1510 1510 1510 1510 1511 1511 1511 1511 1511 1511 1510 1510 1509 1509 1508 1508 1507 1506 1506 1505 1504 1504 1504 1503 1503 1503 1503 1503 1503 1503 1503 1503 1503 1503 1504 1504 1505
1501 1503 1503 1504 1505 1505 1506 1506 1506 1507 1507 1507 1507 1507 1507 1507 1506 1506 1505 1505 1505 1504 1503 1503 1502 1502 1501 1501 1500 1499 1499 1499 1499 1500 1499 1499 1500 1500 1500 1500 1500 1501 1501
1499 1499 1500 1501 1502 1502 1502 1503 1503 1503 1503 1503 1503 1503 1503 1502 1502 1501 1501 1501 1501 1500 1500 1499 1498 1498 1497 1497 1497 1496 1495 1495 1495 1495 1496 1496 1496 1496 1496 1496 1496 1497 1498
1496 1496 1497 1498 1498 1498 1498 1499 1499 1499 1499 1499 1499 1499 1498 1498 1497 1497 1497 1497 1496 1496 1496 1495 1494 1494 1494 1493 1493 1493 1492 1492 1491 1491 1491 1491 1491 1492 1492 1492 1492 1493 1493
1492 1493 1494 1494 1495 1495 1495 1495 1495 1495 1495 1495 1494 1494 1494 1494 1493 1492 1492 1493 1492 1492 1491 1491 1490 1490 1490 1489 1489 1489 1489 1489 1488 1488 1488 1488 1488 1487 1487 1488 1488 1489 1489
1489 1490 1491 1491 1491 1491 1492 1491 1491 1491 1491 1491 1490 1490 1490 1489 1489 1488 1488 1488 1488 1488 1488 1487 1487 1486 1486 1485 1485 1485 1485 1485 1485 1484 1484 1484 1484 1484 1484 1484 1484 1484 1485
1487 1487 1488 1488 1488 1488 1488 1488 1488 1487 1487 1487 1486 1486 1486 1485 1484 1484 1483 1483 1484 1484 1484 1484 1483 1482 1481 1481 1481 1480 1481 1481 1481 1481 1480 1480 1480 1480 1479 1479 1480 1480 1480
1484 1484 1485 1485 1486 1485 1485 1485 1484 1484 1484 1483 1483 1482 1482 1481 1481 1480 1480 1479 1479 1479 1479 1479 1479 1478 1478 1477 1477 1476 1476 1477 1477 1477 1477 1476 1476 1476 1476 1475 1476 1476 1476
1481 1482 1482 1483 1483 1483 1482 1482 1481 1480 1480 1480 1479 1479 1478 1477 1477 1476 1476 1475 1475 1475 1475 1475 1475 1474 1474 1473 1473 1473 1473 1473 1473 1473 1473 1472 1472 1472 1471 1471 1471 1471 1470
1478 1479 1479 1479 1479 1479 1479 1478 1478 1478 1477 1477 1476 1475 1474 1474 1473 1473 1472 1472 1471 1471 1472 1471 1471 1471 1470 1470 1470 1470 1469 1469 1469 1469 1469 1468 1468 1467 1467 1467 1466 1466 1466
1475 1476 1476 1476 1476 1476 1476 1475 1475 1474 1474 1473 1472 1472 1471 1471 1470 1469 1468 1468 1467 1467 1468 1467 1467 1467 1467 1467 1466 1466 1466 1466 1465 1465 1465 1465 1464 1464 1463 1463 1462 1462 1462
1473 1473 1472 1473 1473 1472 1472 1472 1471 1471 1470 1469 1469 1468 1467 1466 1466 1465 1465 1464 1464 1464 1464 1464 1464 1464 1464 1464 1463 1463 1462 1462 1462 1461 1461 1461 1461 1460 1460 1459 1459 1458 1458
1470 1470 1469 1469 1469 1469 1469 1469 1468 1468 1467 1466 1466 1465 1464 1463 1462 1461 1461 1461 1461 1461 1461 1461 1461 1460 1460 1460 1459 1459 1459 1458 1458 1457 1457 1457 1457 1457 1456 1456 1455 1455 1455
1467 1467 1467 1467 1466 1466 1466 1466 1466 1465 1464 1463 1463 1462 1461 1460 1459 1459 1458 1458 1458 1458 1458 1458 1457 1457 1457 1456 1456 1455 1455 1454 1454 1453 1453 1453 1453 1453 1453 1452 1452 1451 1451
1465 1465 1464 1464 1464 1464 1463 1463 1463 1462 1461 1460 1460 1459 1458 1457 1456 1456 1456 1455 1455 1455 1455 1454 1454 1454 1453 1453 1452 1451 1451 1450 1450 1449 1449 1449 1449 1449 1449 1449 1449 1448 1448
1463 1462 1462 1462 1461 1461 1461 1460 1460 1459 1458 1457 1457 1456 1455 1454 1454 1454 1453 1452 1452 1452 1451 1451 1450 1450 1449 1449 1448 1448 1447 1447 1446 1446 1445 1445 1445 1445 1445 1445 1445 1445 1444
1461 1460 1460 1459 1459 1458 1457 1457 1457 1456 1455 1454 1454 1453 1452 1452 1451 1451 1450 1450 1449 1449 1449 1448 1447 1447 1446 1445 1445 1444 1443 1443 1442 1442 1441 1441 1441 1441 1441 1441 1441 1441 1441
1459 1458 1457 1457 1456 1455 1455 1454 1454 1453 1452 1452 1451 1450 1449 1449 1449 1448 1447 1447 1446 1446 1445 1444 1443 1443 1443 1442 1441 1440 1440 1439 1439 1438 1438 1437 1437 1437 1437 1437 1437 1437 1437
1456 1455 1455 1454 1453 1453 1452 1452 1451 1450 1450 1449 1448 1447 1447 1446 1446 1445 1444 1444 1443 1442 1442 1441 1440 1440 1439 1438 1438 1437 1436 1435 1435 1435 1434 1434 1434 1434 1434 1434 1434 1434 1434
1453 1452 1452 1451 1450 1450 1450 1449 1448 1447 1447 1446 1445 1444 1444 1444 1443 1442 1441 1441 1440 1439 1439 1438 1437 1436 1435 1435 1434 1433 1432 1432 1431 1431 1431 1431 1430 1431 1431 1431 1431 1431 1431
1450 1450 1449 1448 1448 1447 1447 1446 1445 1444 1444 1443 1442 1442 1441 1441 1440 1439 1438 1437 1437 1436 1435 1434 1433 1433 1432 1431 1430 1430 1429 1428 1428 1428 1427 1427 1427 1427 1427 1427 1427 1427 1427